This is the latest recevied weather packets stored in our database for station/object KB0Y. If no packets are shown the sender has not sent any weather packets the latest 10 day(s).
| Time | Temp. | Humidity | Pressure | Rain* | Wind** | Luminosity | Snow |
|---|---|---|---|---|---|---|---|
| 1778110441 | 28.33° C | 64% | 1018.3 hPa | 0 mm | - | 57 W/m² | - |
| 1778110139 | 28.89° C | 64% | 1018.3 hPa | 0 mm | - | 63 W/m² | - |
| 1778109834 | 28.89° C | 63% | 1017.9 hPa | 0 mm | - | 72 W/m² | - |
| 1778109531 | 29.44° C | 63% | 1018.3 hPa | 0 mm | - | 85 W/m² | - |
| 1778109229 | 29.44° C | 62% | 1018.3 hPa | 0 mm | - | 94 W/m² | - |
| 1778108926 | 30° C | 62% | 1018.3 hPa | 0 mm | - | 158 W/m² | - |
| 1778108622 | 30° C | 61% | 1018.3 hPa | 0 mm | - | 187 W/m² | - |
| 1778108318 | 30° C | 61% | 1018.3 hPa | 0 mm | - | 277 W/m² | - |
| 1778108016 | 30° C | 61% | 1018.3 hPa | 0 mm | - | 294 W/m² | - |
| 1778107713 | 30.56° C | 60% | 1018.3 hPa | 0 mm | - | 302 W/m² | - |
| 1778107410 | 30.56° C | 60% | 1017.9 hPa | 0 mm | - | 319 W/m² | - |
| 1778107107 | 30.56° C | 59% | 1017.9 hPa | 0 mm | - | 340 W/m² | - |
| 1778106801 | 30.56° C | 59% | 1017.9 hPa | 0 mm | - | 355 W/m² | - |
| 1778106499 | 31.11° C | 59% | 1017.9 hPa | 0 mm | - | 383 W/m² | - |
| 1778106194 | 31.11° C | 58% | 1017.9 hPa | 0 mm | - | 401 W/m² | - |
| 1778105887 | 31.11° C | 58% | 1018.3 hPa | 0 mm | - | 413 W/m² | - |
| 1778105584 | 31.11° C | 58% | 1018.3 hPa | 0 mm | - | 421 W/m² | - |
| 1778105281 | 31.11° C | 56% | 1018.3 hPa | 0 mm | - | 434 W/m² | - |
| 1778104976 | 31.11° C | 57% | 1018.3 hPa | 0 mm | - | 440 W/m² | - |
| 1778104673 | 31.11° C | 58% | 1018.6 hPa | 0 mm | - | 449 W/m² | - |
| 1778104369 | 31.11° C | 56% | 1018.6 hPa | 0 mm | - | 455 W/m² | - |
| 1778104065 | 31.11° C | 56% | 1018.3 hPa | 0 mm | - | 469 W/m² | - |
| 1778103762 | 31.11° C | 57% | 1018.6 hPa | 0 mm | - | 471 W/m² | - |
| 1778103461 | 31.11° C | 56% | 1018.3 hPa | 0 mm | - | 479 W/m² | - |
| 1778103158 | 31.67° C | 55% | 1018.9 hPa | 0 mm | - | 496 W/m² | - |
* Rain latest hour (hover to see other rain measurements)
** Current wind speed in m/s (hover to see current wind gust speed)